Destin - Fort Walton Beach Weather Center

Moon Phase Calendar



Online Cameras

 


      

Current Conditions in Destin
6/22/2021 9:04:50 AM

75°F
Feels Like 77
Clouds
Humidity
92%
Pressure
29.97"
Wind
4.6 mph (N)
Dew Point
73°F
UV Index
4/10 (Moderate)
Visibility
6 mi

Hourly Forecast

Date & Time Tue, Jun 22
9:00 AM
Tue, Jun 22
10:00 AM
Tue, Jun 22
11:00 AM
Tue, Jun 22
12:00 PM
Tue, Jun 22
1:00 PM
Tue, Jun 22
2:00 PM
Tue, Jun 22
3:00 PM
Tue, Jun 22
4:00 PM
Tue, Jun 22
5:00 PM
Tue, Jun 22
6:00 PM
Tue, Jun 22
7:00 PM
Tue, Jun 22
8:00 PM
Tue, Jun 22
9:00 PM
Tue, Jun 22
10:00 PM
Tue, Jun 22
11:00 PM
Wed, Jun 23
12:00 AM
Wed, Jun 23
1:00 AM
Wed, Jun 23
2:00 AM
Wed, Jun 23
3:00 AM
Wed, Jun 23
4:00 AM
Wed, Jun 23
5:00 AM
Wed, Jun 23
6:00 AM
Wed, Jun 23
7:00 AM
Wed, Jun 23
8:00 AM
Wed, Jun 23
9:00 AM
Wed, Jun 23
10:00 AM
Wed, Jun 23
11:00 AM
Wed, Jun 23
12:00 PM
Wed, Jun 23
1:00 PM
Wed, Jun 23
2:00 PM
Wed, Jun 23
3:00 PM
Wed, Jun 23
4:00 PM
Wed, Jun 23
5:00 PM
Wed, Jun 23
6:00 PM
Wed, Jun 23
7:00 PM
Wed, Jun 23
8:00 PM
Wed, Jun 23
9:00 PM
Wed, Jun 23
10:00 PM
Wed, Jun 23
11:00 PM
Thu, Jun 24
12:00 AM
Thu, Jun 24
1:00 AM
Thu, Jun 24
2:00 AM
Thu, Jun 24
3:00 AM
Thu, Jun 24
4:00 AM
Thu, Jun 24
5:00 AM
Thu, Jun 24
6:00 AM
Thu, Jun 24
7:00 AM
Thu, Jun 24
8:00 AM
Condition
Clouds

Clouds

Clouds

Clouds

Clouds

Clouds

Rain

Clouds

Clouds

Rain

Rain

Rain

Clouds

Rain

Rain

Clouds

Rain

Clouds

Clouds

Clouds

Clouds

Rain

Rain

Rain

Rain

Clear

Rain

Rain

Rain

Rain

Clouds

Rain

Clouds

Clouds

Rain

Rain

Rain

Rain

Rain

Rain

Rain

Clear

Rain

Clear

Rain

Clear

Clear

Rain
Temperature 75°F76°F77°F79°F79°F81°F81°F82°F82°F81°F80°F78°F78°F78°F77°F77°F77°F77°F77°F77°F76°F76°F78°F81°F82°F84°F84°F85°F85°F85°F86°F85°F85°F84°F82°F80°F80°F79°F79°F78°F79°F78°F78°F78°F77°F77°F79°F81°F
Feels Like 77°F77°F79°F79°F79°F84°F85°F86°F86°F85°F80°F80°F79°F79°F79°F79°F78°F78°F78°F78°F78°F78°F80°F85°F88°F90°F90°F91°F91°F91°F92°F92°F91°F90°F88°F85°F80°F79°F79°F80°F80°F80°F79°F79°F79°F79°F80°F85°F
Cloudiness 75%80%85%90%95%100%100%100%100%100%100%100%100%100%100%100%100%99%71%48%36%29%24%0%0%2%6%12%13%27%23%32%44%38%32%10%11%11%9%7%6%0%0%0%0%0%0%0%
Visibility 6 mi6 mi6 mi6 mi6 mi6 mi6 mi6 mi6 mi6 mi6 mi6 mi6 mi6 mi6 mi6 mi6 mi6 mi6 mi6 mi6 mi6 mi6 mi6 mi6 mi6 mi6 mi6 mi6 mi6 mi6 mi6 mi6 mi6 mi6 mi6 mi6 mi6 mi6 mi6 mi6 mi6 mi6 mi6 mi6 mi6 mi6 mi6 mi
Precipitation 80%80%80%80%80%65%73%63%58%58%57%49%55%54%54%50%52%34%5%3%7%46%51%83%92%72%92%84%92%65%57%57%57%57%57%66%64%71%77%82%85%27%36%29%33%50%51%40%
Humidity 92%89%84%78%76%72%71%70%71%74%79%83%86%88%89%89%89%90%90%90%90%89%84%78%73%68%67%67%66%66%65%66%68%71%75%80%82%84%84%84%84%84%85%86%87%87%84%77%
Dew Point 73°F72°F72°F71°F71°F70°F70°F71°F71°F71°F72°F73°F73°F74°F74°F74°F73°F73°F73°F73°F73°F73°F73°F73°F73°F72°F72°F72°F72°F72°F72°F72°F72°F73°F73°F74°F74°F74°F74°F73°F73°F73°F73°F73°F73°F73°F73°F73°F
Pressure 29.97"29.97"29.97"30"30"29.97"29.97"29.97"29.97"29.97"29.97"30"30"30"30"30"30"29.97"29.97"29.97"30"30"30.06"30.06"30.06"30.06"30.06"30.06"30.06"30.06"30.03"30.03"30.03"30.03"30.03"30.03"30.06"30.06"30.06"30.06"30.06"30.06"30.03"30.03"30.06"30.06"30.09"30.09"
Wind Speed 16.8 mph17.1 mph16.9 mph16.7 mph16.4 mph16 mph15 mph12.8 mph11.3 mph10.7 mph9.7 mph8.8 mph7.6 mph7.2 mph5.9 mph5.2 mph4.5 mph3 mph2.8 mph2.4 mph2.1 mph1.4 mph1.7 mph2.4 mph3.8 mph4.2 mph5.4 mph6.7 mph8.6 mph8.8 mph9.4 mph9.4 mph9.7 mph8.2 mph6.8 mph5.6 mph5.5 mph5.1 mph4.8 mph4 mph4 mph4.2 mph3.8 mph3.4 mph3 mph2.9 mph1.9 mph1.5 mph
Wind
Direction
221°
SW
224°
SW
228°
SW
233°
SW
232°
SW
219°
SW
214°
SW
212°
SSW
214°
SW
220°
SW
220°
SW
223°
SW
226°
SW
231°
SW
235°
SW
230°
SW
234°
SW
222°
SW
216°
SW
199°
SSW
182°
S
192°
SSW
234°
SW
228°
SW
233°
SW
221°
SW
208°
SSW
196°
SSW
200°
SSW
203°
SSW
205°
SSW
213°
SSW
211°
SSW
215°
SW
217°
SW
210°
SSW
217°
SW
221°
SW
225°
SW
225°
SW
213°
SSW
206°
SSW
212°
SSW
231°
SW
262°
W
296°
WNW
319°
NW
18°
NNE

Daily Forecast

Date High Low Precip. Humidity
Today
Jun 22

Rain
82 °F
74 °F
100%
78%
Wednesday
Jun 23

Rain
86 °F
76 °F
92%
67%
Thursday
Jun 24

Rain
86 °F
78 °F
96%
62%
Friday
Jun 25

Rain
84 °F
75 °F
92%
64%
Saturday
Jun 26

Rain
86 °F
76 °F
86%
77%
Sunday
Jun 27

Rain
84 °F
76 °F
85%
70%
Monday
Jun 28

Rain
86 °F
76 °F
50%
60%
Tuesday
Jun 29

Rain
87 °F
77 °F
27%
59%
Wednesday
Jun 30

Rain
87 °F
76 °F
85%
56%
Thursday
Jul 1

Rain
82 °F
77 °F
89%
83%
Friday
Jul 2

Rain
83 °F
77 °F
100%
80%
Saturday
Jul 3

Rain
79 °F
76 °F
98%
76%
Sunday
Jul 4

Rain
79 °F
77 °F
100%
83%
Monday
Jul 5

Rain
81 °F
78 °F
100%
82%
Tuesday
Jul 6

Rain
79 °F
76 °F
100%
79%
Wednesday
Jul 7

Rain
82 °F
77 °F
74%
68%

Temperature 8-14 Day Outlook



Precipitation 8-14 Day Outlook




Quick Links
Destin - Fort Walton Beach News
Destin - Fort Walton Beach Photos
Destin - Fort Walton Beach Videos




About Us
Contact Us
Site Map
Search Site
Advertise With Us
   
Destin.USGulf.info
THE DESTIN - FORT WALTON BEACH WEBSITE

Copyright 2021, Coastal Town
Privacy    |    Legal